Location: Équennes
(49.7375°N, 1.9622°E)
Time: 01:00:17
(UTC+00:00)

Cosmos 1703 - Pass Details

Date: 28 January 2023
Orbit: 511 x 524 km, 82.5° (Epoch: 30 March)

Event Time Altitude Azimuth Distance (km) Brightness Sun altitude
Rises 18:07:43 0° 195° (SSW) 2,612 7.2 -14.1°
Reaches altitude 10° 18:09:51 10° 198° (SSW) 1,730 6.2 -14.5°
Maximum altitude 18:13:37 66° 281° (WNW) 563 3.5 -15.1°
Drops below altitude 10° 18:17:25 10° 5° (N) 1,747 5.7 -15.7°
Sets 18:19:35 0° 8° (N) 2,640 6.6 -16.0°
